CUBEBUG-2 (LO-74)

Last updated on Thu Nov 21 2024 00:03:02 GMT+0000 (Coordinated Universal Time)

1 39440U 13066AA 24325.26285297 .00006822 00000+0 74572-3 0 9998 2 39440 97.8292 265.9704 0067819 121.7427 239.0422 14.86476245591494
UTC large
Height (km)
Speed (km/s)
/
Latitude / Longitude
Inclination (degrees)
Orbital Period (minutes)
Azimuth
Elevation
Range (km)
Doppler Factor

Next 0 passes for location: London (51.5072 / 0.1276)

Sorry there are no passes over London.